Overview Statistics Trail Chart Weather Telemetry Raw packets
 

This is the latest recevied weather packets stored in our database for station/object KI6SYE. If no packets are shown the sender has not sent any weather packets the latest 10 day(s).

<< 105 106 107 108 109 110 111 >>
Time Temp. Humidity Pressure Rain* Wind** Luminosity Snow
1787884240 23.89° C 82% 1008.3 hPa 0 mm - 1 W/m² -
1787883935 23.89° C 82% 1008.5 hPa 0 mm - 2 W/m² -
1787883630 23.89° C 83% 1008.5 hPa 0 mm - 4 W/m² -
1787883326 24.44° C 82% 1008.6 hPa 0 mm - 6 W/m² -
1787883025 24.44° C 82% 1008.6 hPa 0 mm - 10 W/m² -
1787882720 23.89° C 83% 1008.6 hPa 0 mm - 14 W/m² -
1787882417 23.89° C 84% 1008.7 hPa 0 mm - 19 W/m² -
1787882112 23.89° C 85% 1008.9 hPa 0 mm - 23 W/m² -
1787881806 23.89° C 85% 1008.8 hPa 0 mm - 25 W/m² -
1787881501 23.89° C 85% 1008.9 hPa 0 mm - 26 W/m² -
1787881198 23.89° C 85% 1009 hPa 0 mm - 25 W/m² -
1787880893 23.89° C 85% 1008.9 hPa 0 mm - 25 W/m² -
1787880587 23.89° C 84% 1008.9 hPa 0 mm - 27 W/m² -
1787880284 24.44° C 84% 1008.8 hPa 0 mm - 34 W/m² -
1787879980 24.44° C 84% 1008.8 hPa 0 mm - 40 W/m² -
1787879675 24.44° C 85% 1008.8 hPa 0 mm - 47 W/m² -
1787879371 23.89° C 85% 1008.8 hPa 0 mm - 57 W/m² -
1787879066 24.44° C 88% 1008.9 hPa 0 mm - 61 W/m² -
1787878762 24.44° C 88% 1008.9 hPa 0 mm - 60 W/m² -
1787878461 24.44° C 89% 1008.9 hPa 0 mm - 64 W/m² -
1787878157 24.44° C 89% 1009 hPa 0 mm - 81 W/m² -
1787877853 25° C 90% 1008.9 hPa 0 mm - 99 W/m² -
1787877553 25° C 90% 1008.8 hPa 0 mm - 94 W/m² -
1787877249 25° C 90% 1008.7 hPa 0 mm - 80 W/m² -
1787876943 25.56° C 89% 1009 hPa 0 mm - 90 W/m² -

* Rain latest hour (hover to see other rain measurements)
** Current wind speed in m/s (hover to see current wind gust speed)